This is the latest recevied weather packets stored in our database for station/object KC4GS-13. If no packets are shown the sender has not sent any weather packets the latest 10 day(s).
| Time | Temp. | Humidity | Pressure | Rain* | Wind** | Luminosity | Snow |
|---|---|---|---|---|---|---|---|
| 1777472687 | 19.44° C | 99% | 1014.9 hPa | 0 mm | - | 101 W/m² | - |
| 1777472383 | 18.89° C | 99% | 1014.8 hPa | 0 mm | - | 441 W/m² | - |
| 1777472082 | 18.89° C | 99% | 1014.9 hPa | 0 mm | - | 99 W/m² | - |
| 1777471777 | 18.89° C | 99% | 1015 hPa | 0 mm | - | 126 W/m² | - |
| 1777471473 | 18.89° C | 99% | 1015.1 hPa | 0 mm | - | 110 W/m² | - |
| 1777471170 | 18.33° C | 99% | 1015.2 hPa | 0 mm | - | 151 W/m² | - |
| 1777470867 | 18.33° C | 99% | 1015.3 hPa | 0 mm | - | 146 W/m² | - |
| 1777470564 | 17.78° C | 99% | 1015.2 hPa | 0 mm | - | 101 W/m² | - |
| 1777470260 | 17.78° C | 99% | 1014.9 hPa | 0 mm | - | 110 W/m² | - |
| 1777469956 | 17.78° C | 99% | 1015.2 hPa | 0 mm | - | 109 W/m² | - |
| 1777469652 | 17.78° C | 99% | 1015.4 hPa | 0 mm | - | 126 W/m² | - |
| 1777469347 | 17.78° C | 99% | 1015.6 hPa | 0 mm | - | 146 W/m² | - |
| 1777469044 | 17.78° C | 99% | 1015.6 hPa | 0 mm | - | 98 W/m² | - |
| 1777468738 | 17.78° C | 99% | 1015.5 hPa | 0 mm | - | 72 W/m² | - |
| 1777468435 | 17.22° C | 99% | 1015.8 hPa | 0 mm | - | 91 W/m² | - |
| 1777468130 | 17.22° C | 99% | 1016 hPa | 0 mm | - | 114 W/m² | - |
| 1777467827 | 17.22° C | 99% | 1016.2 hPa | 0 mm | - | 131 W/m² | - |
| 1777467523 | 17.22° C | 99% | 1016.1 hPa | 0 mm | - | 111 W/m² | - |
| 1777467218 | 16.67° C | 99% | 1016.5 hPa | 0 mm | - | 44 W/m² | - |
| 1777466915 | 16.67° C | 99% | 1016.4 hPa | 0 mm | - | 42 W/m² | - |
| 1777466613 | 16.67° C | 99% | 1016.5 hPa | 0 mm | - | 36 W/m² | - |
| 1777466309 | 16.67° C | 99% | 1016.6 hPa | 0 mm | - | 21 W/m² | - |
| 1777466006 | 16.67° C | 99% | 1016.7 hPa | 1.27 mm | - | 24 W/m² | - |
| 1777465702 | 16.67° C | 99% | 1016.9 hPa | 1.27 mm | - | 13 W/m² | - |
| 1777465398 | 16.67° C | 99% | 1016.9 hPa | 0 mm | - | 12 W/m² | - |
* Rain latest hour (hover to see other rain measurements)
** Current wind speed in m/s (hover to see current wind gust speed)